Regional Weather Roundup
Issued by NWS

Home | Current Version | Previous Version | Graphics & Text | Print | Product List | Glossary On
Versions: 1 2 3 4 5 6 7 8 9 10 11 12 13 14 15 16 17 18 19 20 21 22 23 24 25 26 27 28 29 30 31 32 33 34 35 36 37 38 39 40 41 42 43 44 45 46 47 48 49 50
000
ASUS43 KTOP 050159
RWRKS

WEATHER ROUNDUP FOR KANSAS
NATIONAL WEATHER SERVICE GOODLAND KS
900 PM CDT MON MAY 04 2015

NOTE:  "FAIR" INDICATES FEW OR NO CLOUDS BELOW 12,000 FEET WITH NO
SIGNIFICANT WEATHER AND/OR OBSTRUCTIONS TO VISIBILITY.

KSZ001>006-013>018-027>032-041>047-050300-
NORTHWEST KANSAS

CITY           SKY/WX    TMP DP  RH WIND       PRES   REMARKS
GOODLAND       CLOUDY    53  45  74 NE15      30.07R
HAYS           CLOUDY    61  54  77 E13       30.06R
HILL CITY      CLOUDY    61  52  72 NE15      30.07R
RUSSELL        LGT RAIN  64  59  83 S10       30.05R
$$

KSZ061>065-074>080-084>089-050300-
SOUTHWEST KANSAS

CITY           SKY/WX    TMP DP  RH WIND       PRES   REMARKS
DODGE CITY     CLOUDY    63  58  83 N5        29.99R
ELKHART          N/A     57  53  86 SE5         N/A
GARDEN CITY    LGT RAIN  61  55  81 NW10      29.98S
GREAT BEND     CLOUDY    61  55  82 NW15      30.03R
LIBERAL        CLOUDY    63  54  72 W5        29.99S
$$

KSZ066>073-081>083-090>101-050300-
SOUTHEAST KANSAS

CITY           SKY/WX    TMP DP  RH WIND       PRES   REMARKS
CHANUTE        PTCLDY    71  60  68 S9        30.02R
COFFEYVILLE    CLEAR     71  58  63 SE7       30.02R
HUTCHINSON     CLOUDY    74  60  61 S8        29.98
MEDICINE LODGE   N/A     72  61  68 SE6       29.96R
NEWTON         CLOUDY    73  55  53 S13       30.02R
PARSONS        CLEAR     73  59  61 S6        30.03R
WICHITA INTL   MOCLDY    74  58  57 S10       29.98R
WICHITA JABRA  PTCLDY    73  58  59 S7        30.00R
WINFIELD       PTCLDY    71  57  61 S8        30.01R
$$

KSZ007>012-019>026-033>040-048>060-102>105-050300-
NORTHEAST KANSAS

CITY           SKY/WX    TMP DP  RH WIND       PRES   REMARKS
CONCORDIA      CLOUDY    63  59  87 NE12      30.02R
EMPORIA        MOCLDY    73  58  59 S9        30.02R
LAWRENCE       CLOUDY    65  60  84 NE10      30.06R
MANHATTAN      TSTM      63  60  90 VRB3      29.99R
OLATHE IND     CLOUDY    66  61  84 N8        30.07R THUNDER
OLATHE EXE     CLOUDY    66  62  87 N10       30.06R
SALINA         TSTM      65  61  87 S14       30.00R FOG
TOPEKA BILLARD LGT RAIN  64  60  87 N13       30.07R
TOPEKA FORBES  CLOUDY    66  58  75 NE8       30.06R
$$


USA.gov is the U.S. government's official web portal to all federal, state and local government web resources and services.